User: anonymous   Login
Location: Unspecified
(0.0000°N, 0.0000°E)
Time: 22:02:18
(UTC+00:00)
Language:

IGS 7A - Orbit

View from above orbital plane
View from above orbital plane
View from above satellite
View from above satellite

Ground track
Ground track

The orbit is defined by the following mean orbital elements,

1 37954U 11075A   25268.87846693 0.00000000  00000-0  00000-0 0    09
2 37954  97.5269 340.0855 0001880 355.0565   4.9434 15.17584656    01
Epoch (UTC): 25 September 2025 21:04:59
Eccentricity: 0.0001880
inclination: 97.5269°
perigee height: 512 km
apogee height: 514 km
right ascension of ascending node: 340.0855°
argument of perigee: 355.0565°
revolutions per day: 15.17584656
mean anomaly at epoch: 4.9434°

The dashed part of the orbit path shows where the satellite is in the earth's shadow,  

DLR